When you browse on this site, cookies collect data to enhance your experience and personalize the content and advertising you see.
Visit our Privacy Policy to learn more. By continuing to use the site, you agree to this use of cookies and data.
  • In Portugal
  • List of Countries
  • For 7 days
  • Water Temperature
  • Satellite Maps
  • Weather Map
  • Weather Widgets
  • user-avatar
    Login

    Hourly Weather Lowech

    Today, 23 April, Tuesday

    Time Temperature Precipitation Wind Pressure Humidity
    00:00 +10°C° 0 mm 3 mps 740 mmHg 78%
    01:00 +9°C° 0 mm 3 mps 740 mmHg 78%
    02:00 +8°C° 0 mm 2 mps 740 mmHg 79%
    03:00 +8°C° 0 mm 2 mps 740 mmHg 76%
    04:00 +8°C° 0 mm 2 mps 740 mmHg 74%
    05:00 +8°C° 0 mm 2 mps 741 mmHg 72%
    06:00 +9°C° 0 mm 2 mps 741 mmHg 71%
    07:00 +9°C° 0 mm 2 mps 741 mmHg 70%
    08:00 +10°C° 0 mm 2 mps 742 mmHg 70%
    09:00 +12°C° 0.1 mm 2 mps 742 mmHg 68%
    10:00 +13°C° 0.1 mm 2 mps 742 mmHg 66%
    11:00 +13°C° 0.1 mm 2 mps 742 mmHg 64%
    12:00 +14°C° 0.1 mm 2 mps 742 mmHg 64%
    13:00 +13°C° 0.1 mm 3 mps 741 mmHg 64%
    14:00 +14°C° 0.1 mm 3 mps 741 mmHg 63%
    15:00 +13°C° 0.3 mm 3 mps 741 mmHg 66%
    16:00 +13°C° 0.3 mm 3 mps 741 mmHg 70%
    17:00 +13°C° 0.3 mm 3 mps 740 mmHg 73%
    18:00 +12°C° 0 mm 3 mps 740 mmHg 76%
    19:00 +11°C° 0 mm 3 mps 740 mmHg 78%
    20:00 +10°C° 0 mm 3 mps 740 mmHg 81%
    21:00 +10°C° 0 mm 2 mps 741 mmHg 81%
    22:00 +10°C° 0 mm 2 mps 741 mmHg 81%
    23:00 +9°C° 0 mm 2 mps 741 mmHg 81%

    Tomorrow, 24 April, Wednesday

    Time Temperature Precipitation Wind Pressure Humidity
    00:00 +9°C° 0 mm 2 mps 741 mmHg 81%
    01:00 +8°C° 0 mm 2 mps 741 mmHg 82%
    02:00 +9°C° 0 mm 1 mps 741 mmHg 83%
    03:00 +9°C° 0 mm 1 mps 741 mmHg 83%
    04:00 +9°C° 0 mm 1 mps 741 mmHg 83%
    05:00 +8°C° 0 mm 1 mps 741 mmHg 83%
    06:00 +10°C° 0 mm 1 mps 741 mmHg 78%
    07:00 +12°C° 0 mm 1 mps 742 mmHg 72%
    08:00 +13°C° 0 mm 0 mps 742 mmHg 67%
    09:00 +15°C° 0 mm 1 mps 742 mmHg 64%
    10:00 +17°C° 0 mm 2 mps 742 mmHg 61%
    11:00 +18°C° 0 mm 2 mps 742 mmHg 58%
    12:00 +19°C° 0 mm 2 mps 742 mmHg 57%
    13:00 +20°C° 0 mm 2 mps 742 mmHg 56%
    14:00 +21°C° 0 mm 3 mps 742 mmHg 55%
    15:00 +20°C° 0 mm 3 mps 742 mmHg 57%
    16:00 +20°C° 0 mm 3 mps 741 mmHg 59%
    17:00 +20°C° 0 mm 3 mps 741 mmHg 60%
    18:00 +18°C° 0 mm 3 mps 741 mmHg 66%
    19:00 +16°C° 0 mm 2 mps 741 mmHg 72%
    20:00 +15°C° 0 mm 2 mps 741 mmHg 78%
    21:00 +14°C° 0 mm 2 mps 742 mmHg 79%
    22:00 +14°C° 0 mm 1 mps 742 mmHg 79%
    23:00 +13°C° 0 mm 1 mps 742 mmHg 80%

    Day after tomorrow, 25 April, Thursday

    Time Temperature Precipitation Wind Pressure Humidity
    00:00 +13°C° 0 mm 1 mps 742 mmHg 81%
    01:00 +13°C° 0 mm 1 mps 742 mmHg 82%
    02:00 +12°C° 0 mm 1 mps 742 mmHg 83%
    03:00 +12°C° 0 mm 1 mps 742 mmHg 85%
    04:00 +12°C° 0 mm 1 mps 743 mmHg 86%
    05:00 +11°C° 0 mm 1 mps 743 mmHg 88%
    06:00 +12°C° 0 mm 0 mps 743 mmHg 83%
    07:00 +14°C° 0 mm 0 mps 743 mmHg 79%
    08:00 +15°C° 0 mm 0 mps 743 mmHg 74%
    09:00 +19°C° 0 mm 1 mps 743 mmHg 70%
    10:00 +20°C° 0 mm 1 mps 743 mmHg 67%
    11:00 +21°C° 0 mm 2 mps 743 mmHg 63%
    12:00 +21°C° 0 mm 2 mps 743 mmHg 62%
    13:00 +23°C° 0 mm 2 mps 743 mmHg 60%
    14:00 +24°C° 0 mm 2 mps 742 mmHg 58%
    15:00 +24°C° 0.1 mm 2 mps 742 mmHg 59%
    16:00 +24°C° 0.1 mm 2 mps 742 mmHg 60%
    17:00 +24°C° 0.1 mm 3 mps 741 mmHg 60%
    18:00 +21°C° 0 mm 2 mps 741 mmHg 67%
    19:00 +19°C° 0 mm 2 mps 741 mmHg 73%
    20:00 +17°C° 0 mm 2 mps 741 mmHg 79%
    21:00 +16°C° 0 mm 2 mps 741 mmHg 81%
    22:00 +16°C° 0 mm 2 mps 742 mmHg 82%
    23:00 +15°C° 0 mm 2 mps 742 mmHg 83%

    26 April, Friday

    Time Temperature Precipitation Wind Pressure Humidity
    00:00 +15°C° 0 mm 2 mps 742 mmHg 84%
    01:00 +14°C° 0 mm 1 mps 742 mmHg 84%
    02:00 +14°C° 0 mm 1 mps 741 mmHg 85%
    03:00 +14°C° 0 mm 1 mps 741 mmHg 85%
    04:00 +13°C° 0 mm 1 mps 741 mmHg 86%
    05:00 +13°C° 0 mm 1 mps 741 mmHg 87%
    06:00 +15°C° 0 mm 1 mps 741 mmHg 82%
    07:00 +16°C° 0 mm 1 mps 741 mmHg 78%
    08:00 +17°C° 0 mm 0 mps 742 mmHg 73%
    09:00 +20°C° 0 mm 1 mps 742 mmHg 68%
    10:00 +22°C° 0 mm 1 mps 742 mmHg 63%
    11:00 +23°C° 0 mm 2 mps 742 mmHg 58%
    12:00 +24°C° 0 mm 2 mps 741 mmHg 56%
    13:00 +24°C° 0 mm 2 mps 741 mmHg 53%
    14:00 +25°C° 0 mm 2 mps 740 mmHg 51%
    15:00 +25°C° 0 mm 2 mps 740 mmHg 52%
    16:00 +25°C° 0 mm 2 mps 740 mmHg 54%
    17:00 +24°C° 0 mm 2 mps 739 mmHg 55%
    18:00 +21°C° 0 mm 2 mps 739 mmHg 63%
    19:00 +19°C° 0 mm 2 mps 739 mmHg 71%
    20:00 +17°C° 0 mm 2 mps 739 mmHg 79%
    21:00 +17°C° 0 mm 2 mps 739 mmHg 80%
    22:00 +16°C° 0 mm 2 mps 739 mmHg 82%
    23:00 +15°C° 0 mm 2 mps 740 mmHg 84%

    27 April, Saturday

    Time Temperature Precipitation Wind Pressure Humidity
    00:00 +15°C° 0 mm 2 mps 739 mmHg 82%
    01:00 +14°C° 0 mm 2 mps 739 mmHg 81%
    02:00 +14°C° 0 mm 2 mps 739 mmHg 80%
    03:00 +13°C° 0 mm 2 mps 739 mmHg 79%
    04:00 +13°C° 0 mm 2 mps 738 mmHg 78%
    05:00 +13°C° 0 mm 2 mps 738 mmHg 77%
    06:00 +15°C° 0 mm 1 mps 738 mmHg 73%
    07:00 +16°C° 0 mm 1 mps 738 mmHg 69%
    08:00 +19°C° 0 mm 1 mps 738 mmHg 65%
    09:00 +21°C° 0 mm 1 mps 738 mmHg 61%
    10:00 +23°C° 0 mm 1 mps 738 mmHg 56%
    11:00 +24°C° 0 mm 1 mps 738 mmHg 52%
    12:00 +25°C° 0 mm 1 mps 737 mmHg 51%
    13:00 +25°C° 0 mm 1 mps 737 mmHg 51%
    14:00 +26°C° 0 mm 2 mps 736 mmHg 50%
    15:00 +26°C° 0.1 mm 1 mps 736 mmHg 52%
    16:00 +25°C° 0.1 mm 1 mps 736 mmHg 54%
    17:00 +25°C° 0.1 mm 1 mps 735 mmHg 56%
    18:00 +23°C° 0.1 mm 1 mps 735 mmHg 62%
    19:00 +22°C° 0.1 mm 1 mps 735 mmHg 67%
    20:00 +20°C° 0.1 mm 1 mps 735 mmHg 72%
    21:00 +19°C° 0 mm 1 mps 735 mmHg 73%
    22:00 +19°C° 0 mm 1 mps 735 mmHg 73%
    23:00 +18°C° 0 mm 2 mps 735 mmHg 74%

    28 April, Sunday

    Time Temperature Precipitation Wind Pressure Humidity
    00:00 +17°C° 0.1 mm 2 mps 735 mmHg 77%
    01:00 +17°C° 0.1 mm 2 mps 735 mmHg 79%
    02:00 +17°C° 0.1 mm 2 mps 735 mmHg 81%
    03:00 +16°C° 1.1 mm 2 mps 735 mmHg 86%
    04:00 +15°C° 1.1 mm 2 mps 735 mmHg 91%
    05:00 +14°C° 1.1 mm 3 mps 734 mmHg 96%
    06:00 +14°C° 0.2 mm 3 mps 735 mmHg 94%
    07:00 +14°C° 0.2 mm 3 mps 735 mmHg 93%
    08:00 +14°C° 0.2 mm 4 mps 735 mmHg 91%
    09:00 +15°C° 0.2 mm 4 mps 735 mmHg 85%
    10:00 +15°C° 0.2 mm 4 mps 735 mmHg 79%
    11:00 +17°C° 0.2 mm 4 mps 735 mmHg 72%
    12:00 +17°C° 0.2 mm 4 mps 734 mmHg 68%
    13:00 +18°C° 0.2 mm 4 mps 734 mmHg 65%
    14:00 +19°C° 0.2 mm 4 mps 734 mmHg 61%
    15:00 +18°C° 0 mm 4 mps 734 mmHg 64%
    16:00 +18°C° 0 mm 3 mps 734 mmHg 68%
    17:00 +17°C° 0 mm 2 mps 734 mmHg 71%
    18:00 +16°C° 0.1 mm 2 mps 734 mmHg 72%
    19:00 +16°C° 0.1 mm 3 mps 734 mmHg 72%
    20:00 +14°C° 0.1 mm 3 mps 734 mmHg 73%
    21:00 +13°C° 0 mm 3 mps 735 mmHg 73%
    22:00 +13°C° 0 mm 3 mps 735 mmHg 73%
    23:00 +12°C° 0 mm 3 mps 735 mmHg 73%
    Show more